Wind_Speed
36 38 35 32 32 32 26 30 28 32 31 26 22 23 22 19 17 14 12 12 11 10 12 18 16 17 16 30 31 32 30 29 45 36 47 47 65 65 57 69 86 87 90 88 84
36 37 36 32 33 31 29 30 31 34 29 25 23 22 21 18 18 17 14 13 12 11 10 9 18 19 20 21 38 36 38 33 35 47 48 47 50 51 57 52 71 70 67 74 78
37 36 35 32 31 29 30 33 34 32 27 28 25 21 19 18 18 16 16 16 17 14 13 15 14 17 22 25 27 36 45 46 41 51 54 55 57 56 61 72 63 69 79 74 83
38 36 35 34 29 31 31 32 32 32 30 28 24 22 18 19 19 18 16 17 18 19 18 17 16 15 17 20 25 29 38 40 42 55 60 64 62 64 64 65 74 76 73 73 85
35 35 35 31 28 32 34 32 30 30 30 25 24 22 19 19 20 20 19 19 20 21 20 23 20 19 21 24 26 28 32 36 40 46 54 64 73 73 76 71 71 80 81 77 77
35 32 30 31 31 33 32 29 28 26 23 22 23 21 19 18 19 20 20 21 23 25 25 24 26 26 29 30 32 34 36 39 41 43 47 52 61 69 77 85 84 84 84 93 89
33 30 31 32 32 29 27 27 26 25 23 20 19 17 17 19 20 19 20 22 25 28 30 29 31 34 37 38 40 41 42 45 48 52 56 58 62 65 70 75 82 90 98 100 100
35 31 31 33 30 27 25 23 24 26 23 20 17 17 20 23 24 20 23 25 28 31 33 35 39 42 43 43 45 48 48 51 52 55 60 61 66 72 73 76 80 84 89 93 98
34 32 33 34 29 26 24 19 20 21 20 19 19 17 17 20 18 20 26 28 30 33 36 37 39 41 44 47 51 54 58 61 64 64 64 66 67 75 78 83 88 91 92 95 98
36 33 35 35 26 25 25 21 20 18 16 17 19 16 10 12 17 18 24 29 31 32 35 36 39 43 49 54 60 62 63 67 70 70 69 72 70 73 76 80 86 93 98 101 101
39 37 37 35 29 25 29 27 24 21 20 19 13 14 14 16 18 22 24 27 27 29 28 33 37 45 49 55 61 67 69 67 70 76 73 76 71 71 73 74 76 80 84 90 100
43 41 39 37 31 31 31 33 25 27 28 24 22 21 20 17 20 25 29 31 33 34 37 40 42 45 48 54 60 64 66 71 73 78 76 75 77 78 74 76 76 75 77 83 88
45 44 41 41 34 33 37 37 30 28 29 24 22 22 21 27 26 22 27 31 34 39 42 45 49 52 52 58 58 61 68 73 80 80 79 75 75 69 65 67 67 69 70 74 81
46 42 43 41 36 33 39 37 32 29 27 26 28 26 26 26 25 24 30 35 39 39 42 47 51 58 59 61 61 67 75 77 79 77 73 66 63 65 61 61 61 65 68 71 75
52 48 45 44 37 35 39 36 36 33 32 26 29 32 29 29 31 35 35 40 39 43 47 49 53 59 60 63 68 76 80 83 76 72 65 63 62 58 55 52 53 56 61 64 69
52 47 47 48 42 38 38 35 35 35 38 36 36 32 32 33 36 37 40 41 43 43 48 51 56 61 65 67 74 77 85 81 76 72 63 68 58 53 49 46 45 46 49 52 55
51 46 47 52 47 41 39 36 34 37 36 40 36 33 34 35 41 40 43 46 48 46 51 58 60 57 61 66 77 81 88 74 74 71 68 62 54 45 42 39 37 37 40 44 49
52 46 45 51 49 44 41 39 40 42 38 42 44 43 40 41 45 47 53 51 50 54 57 59 60 63 62 68 78 86 82 75 73 70 71 63 52 43 38 39 39 41 43 45 46
56 55 50 50 55 54 49 44 45 46 42 42 46 50 50 50 52 52 55 61 53 52 56 58 58 60 60 70 80 83 79 74 69 70 65 54 39 37 37 40 51 50 50 50 48
59 55 54 47 47 56 57 52 51 51 47 45 46 53 55 56 56 59 61 60 57 56 56 56 60 58 62 70 78 82 78 74 67 66 48 41 34 38 43 46 54 53 48 46 46
65 65 58 61 55 53 54 58 58 58 55 52 50 47 48 52 51 54 56 60 58 58 57 58 60 60 66 73 77 81 76 72 68 64 43 33 34 40 48 53 58 45 42 41 41
66 67 70 60 66 58 56 62 60 59 58 56 57 56 55 57 59 58 59 59 56 58 56 58 60 61 67 76 79 80 73 68 66 54 37 35 43 43 50 56 60 49 46 44 40
76 75 73 67 67 64 63 62 59 58 60 64 67 65 66 68 64 60 57 60 55 57 53 57 59 60 64 72 75 75 70 67 64 46 37 36 44 49 56 63 57 47 42 37 33
89 85 80 76 76 72 65 67 67 70 70 65 59 60 62 66 64 66 59 59 57 54 55 56 59 61 65 68 75 69 65 63 60 38 30 31 37 45 52 60 47 45 43 38 29
93 84 81 78 73 76 78 71 69 65 71 69 68 65 68 67 66 61 60 60 57 54 55 55 58 60 65 66 72 67 61 60 57 34 26 31 36 45 52 56 51 44 44 40 31
87 85 77 75 80 78 76 73 73 74 74 73 73 71 68 66 62 65 60 60 57 51 51 54 56 60 63 64 70 65 58 56 54 29 22 28 36 44 49 58 53 44 44 39 30
94 85 85 79 77 76 72 75 75 76 77 77 79 76 74 67 65 61 57 59 53 51 48 51 58 56 55 61 65 60 55 54 46 22 19 24 30 38 44 50 51 41 40 38 34
Wind_Direction
281 290 291 291 286 288 298 292 291 294 292 289 278 273 270 272 271 268 275 281 279 280 268 250 235 240 240 211 207 203 207 230 214 212 219 229 223 227 231 242 240 244 246 246 247
283 290 288 286 284 289 299 295 289 290 287 283 276 261 266 272 265 265 270 277 274 279 278 257 248 241 233 233 221 219 229 235 234 221 222 221 224 233 225 236 239 231 232 235 240
284 285 282 281 284 293 296 291 287 283 276 277 270 253 260 263 268 273 273 277 281 281 278 269 257 252 246 234 237 244 232 232 232 229 226 229 232 228 228 235 235 236 234 233 237
282 282 278 279 280 293 293 287 285 278 277 277 265 252 256 262 267 276 284 286 286 289 289 280 264 255 252 251 251 244 238 244 248 236 239 237 234 230 235 238 235 239 235 243 237
275 275 274 277 280 289 291 284 281 278 279 269 259 249 256 262 270 275 285 293 295 288 282 283 275 269 266 263 257 250 249 250 251 248 249 247 242 236 237 240 246 241 235 235 239
269 268 274 278 285 285 285 279 278 278 271 264 252 244 255 265 271 277 285 293 296 296 294 291 290 289 284 280 274 269 263 259 259 257 254 253 253 250 251 249 246 242 244 241 240
260 262 274 276 279 278 277 276 274 274 266 261 241 247 260 266 270 280 286 290 292 295 298 299 296 294 292 289 285 279 273 268 265 263 261 260 257 253 249 249 250 250 249 244 243
259 265 271 277 268 272 270 268 272 274 261 248 239 245 258 267 270 277 285 291 296 301 303 301 299 299 298 297 296 293 289 286 276 273 269 263 265 257 252 249 247 248 250 251 250
259 264 267 275 262 264 259 251 260 254 251 241 249 259 268 267 271 282 291 296 296 297 298 298 301 303 303 300 300 297 297 294 291 285 281 275 270 265 256 251 250 250 249 250 250
256 261 263 267 255 256 245 240 241 251 260 258 247 242 251 275 278 283 289 293 297 297 298 301 303 304 298 296 296 295 295 293 289 286 284 282 279 274 270 264 258 254 251 250 250
252 258 260 254 251 252 243 241 240 247 253 249 239 262 263 269 277 293 295 301 303 305 307 312 309 300 299 299 296 296 295 294 294 289 284 283 284 285 282 279 273 264 258 255 252
253 254 253 247 246 248 245 237 247 256 254 249 252 263 257 273 293 294 304 305 291 293 303 307 305 308 304 301 299 298 296 293 292 290 288 291 296 294 288 282 278 272 267 262 256
253 251 252 243 239 245 242 238 244 247 254 250 266 269 267 286 287 291 304 310 310 295 294 295 305 310 308 308 305 302 298 294 290 291 297 302 297 291 287 283 280 276 271 265 260
249 249 252 238 235 240 241 237 240 243 243 255 267 270 279 282 284 294 308 314 309 306 299 295 299 303 308 312 311 312 308 300 294 304 306 305 299 298 293 288 280 275 271 268 264
249 250 250 232 234 237 236 234 241 240 245 250 260 271 279 276 281 296 308 313 310 310 305 296 295 302 308 314 317 317 314 308 311 314 316 312 311 307 301 290 282 276 271 266 260
244 247 242 233 230 236 235 241 242 242 248 254 264 264 270 272 284 292 299 309 307 305 305 307 303 302 305 314 318 318 316 320 323 321 322 323 319 311 306 300 294 286 280 276 270
242 244 238 231 229 232 230 237 243 249 251 257 259 263 270 279 284 290 301 308 310 302 306 310 310 310 312 314 319 319 320 323 324 325 325 327 321 314 307 303 298 295 294 288 278
236 241 237 232 224 228 231 236 238 245 249 257 260 265 270 279 288 291 300 307 306 303 302 306 307 310 317 315 321 322 322 326 327 329 329 331 326 327 327 327 326 318 308 295 286
233 238 238 237 235 233 232 234 239 240 249 259 261 268 272 276 284 290 295 296 303 301 300 304 311 311 318 321 323 324 322 327 330 332 329 325 326 331 337 334 328 323 314 309 302
233 235 240 238 240 239 235 236 239 242 245 254 258 261 268 270 274 285 291 293 297 302 299 304 310 317 318 320 327 324 324 329 331 332 328 321 336 340 338 339 335 326 318 309 302
232 233 239 242 240 238 238 236 239 243 246 252 256 261 270 277 283 288 288 290 295 302 301 303 313 318 319 322 326 325 326 330 333 333 327 326 342 343 343 345 343 332 324 319 315
234 233 240 244 243 239 235 239 241 246 250 255 259 267 274 277 286 285 285 290 294 298 302 309 315 316 318 324 326 324 327 331 333 333 324 340 344 345 348 350 346 342 336 326 322
245 240 238 244 245 243 240 239 245 254 259 260 264 270 275 278 280 284 287 287 293 297 299 310 313 315 319 325 326 323 327 331 332 331 336 349 345 351 352 350 349 349 344 342 337
245 245 245 246 244 244 245 240 247 254 259 261 262 269 272 274 275 281 286 291 292 295 301 307 311 315 321 325 327 324 327 331 331 325 334 349 349 348 351 354 353 355 356 355 348
245 244 244 242 239 242 248 249 253 252 254 256 260 266 268 272 276 276 281 285 292 296 298 305 310 314 323 326 327 323 328 331 332 327 338 348 353 353 354 354 3 3 4 1 0
239 243 245 242 245 245 244 246 250 252 253 257 258 261 266 269 271 276 280 283 287 299 298 304 311 315 322 328 329 323 327 330 330 317 344 354 349 352 350 358 5 6 9 11 13
233 233 234 241 243 245 242 246 248 251 253 256 258 259 263 267 270 274 275 282 289 298 296 305 313 318 326 326 328 322 330 326 323 311 342 349 346 350 351 352 1 11 18 26 33
Height
10704 10702 10701 10700 10699 10698 10694 10693 10690 10688 10688 10687 10684 10682 10681 10680 10678 10676 10676 10674 10672 10671 10670 10669 10670 10669 10669 10669 10668 10668 10668 10671 10671 10674 10678 10680 10682 10684 10684 10686 10691 10694 10699 10704 10703
10696 10694 10693 10693 10692 10690 10687 10686 10683 10681 10680 10679 10679 10677 10675 10674 10673 10672 10671 10671 10670 10668 10666 10665 10663 10664 10664 10665 10665 10664 10663 10664 10665 10667 10668 10670 10672 10672 10674 10674 10674 10683 10684 10687 10687
10688 10687 10686 10685 10684 10682 10680 10679 10676 10673 10672 10672 10672 10671 10670 10669 10668 10667 10666 10666 10665 10664 10663 10661 10660 10658 10659 10659 10660 10659 10659 10659 10661 10660 10660 10660 10661 10661 10661 10660 10666 10667 10671 10675 10675
10680 10679 10678 10678 10676 10674 10672 10670 10668 10666 10665 10664 10664 10665 10665 10664 10664 10663 10662 10661 10660 10659 10658 10657 10656 10655 10655 10654 10653 10653 10653 10653 10652 10653 10651 10650 10648 10649 10649 10650 10653 10652 10654 10658 10661
10672 10672 10671 10670 10668 10668 10666 10663 10661 10659 10658 10657 10657 10658 10659 10659 10659 10659 10657 10656 10655 10654 10653 10651 10651 10650 10650 10649 10647 10646 10645 10645 10644 10643 10640 10639 10637 10637 10635 10636 10637 10638 10637 10638 10639
10664 10664 10663 10663 10662 10661 10659 10657 10654 10653 10652 10651 10651 10651 10653 10653 10654 10653 10653 10651 10649 10648 10646 10645 10643 10643 10641 10640 10638 10637 10636 10633 10632 10630 10627 10626 10621 10621 10621 10622 10620 10616 10615 10616 10618
10657 10656 10656 10656 10655 10654 10653 10650 10648 10647 10646 10645 10646 10646 10647 10648 10648 10647 10647 10645 10644 10642 10641 10639 10637 10635 10632 10631 10628 10625 10623 10621 10618 10614 10611 10609 10602 10600 10600 10602 10597 10594 10594 10594 10594
10649 10649 10648 10648 10648 10647 10646 10644 10643 10643 10641 10641 10641 10642 10642 10642 10643 10642 10641 10640 10638 10636 10634 10632 10629 10626 10622 10619 10615 10611 10608 10603 10601 10598 10592 10589 10583 10579 10580 10579 10574 10571 10569 10568 10569
10640 10640 10640 10640 10641 10640 10640 10639 10639 10638 10638 10637 10637 10637 10637 10638 10638 10638 10637 10634 10632 10630 10627 10624 10620 10617 10613 10609 10605 10600 10593 10587 10581 10576 10571 10564 10563 10554 10556 10555 10551 10548 10546 10545 10543
10631 10631 10633 10633 10634 10633 10634 10634 10634 10634 10634 10633 10632 10632 10632 10632 10632 10630 10629 10627 10625 10621 10619 10615 10612 10608 10603 10598 10592 10586 10580 10572 10563 10557 10553 10544 10542 10535 10533 10530 10528 10525 10521 10517 10514
10620 10622 10624 10625 10627 10627 10627 10628 10628 10628 10628 10628 10627 10627 10627 10627 10627 10626 10624 10621 10619 10615 10611 10607 10604 10599 10593 10586 10579 10570 10562 10556 10547 10534 10532 10521 10521 10514 10507 10500 10494 10491 10487 10485 10485
10610 10612 10614 10616 10618 10619 10619 10619 10621 10622 10622 10622 10622 10622 10621 10621 10620 10620 10618 10614 10610 10607 10604 10599 10594 10588 10582 10574 10566 10556 10547 10537 10528 10514 10509 10507 10500 10487 10479 10466 10460 10457 10454 10450 10450
10599 10601 10603 10606 10607 10609 10610 10611 10613 10615 10616 10616 10616 10616 10615 10614 10613 10611 10609 10605 10602 10598 10595 10589 10584 10577 10571 10563 10552 10541 10528 10515 10502 10498 10491 10487 10468 10458 10452 10440 10434 10429 10426 10422 10419
10587 10590 10593 10596 10597 10599 10601 10602 10604 10607 10608 10609 10608 10608 10608 10606 10605 10603 10601 10598 10594 10589 10584 10580 10573 10566 10559 10549 10539 10527 10511 10495 10484 10481 10474 10459 10447 10431 10426 10417 10409 10400 10397 10395 10393
10576 10579 10583 10586 10588 10590 10592 10593 10596 10599 10600 10601 10600 10600 10599 10599 10597 10595 10592 10589 10585 10580 10574 10569 10563 10556 10548 10536 10524 10508 10491 10475 10472 10460 10448 10436 10421 10409 10399 10392 10387 10379 10371 10367 10365
10564 10568 10571 10575 10577 10580 10582 10584 10587 10590 10590 10591 10591 10591 10590 10589 10588 10586 10583 10580 10576 10571 10566 10559 10553 10545 10536 10522 10509 10493 10475 10462 10448 10434 10427 10412 10403 10389 10379 10372 10364 10357 10351 10346 10340
10552 10556 10560 10562 10567 10569 10571 10575 10578 10579 10581 10582 10581 10581 10581 10581 10579 10578 10575 10571 10566 10561 10555 10549 10542 10532 10523 10510 10495 10477 10463 10456 10442 10425 10411 10401 10386 10378 10368 10359 10353 10346 10337 10327 10318
10539 10544 10548 10551 10555 10559 10561 10565 10567 10568 10571 10571 10572 10572 10572 10572 10571 10568 10566 10562 10557 10551 10545 10538 10533 10522 10513 10499 10485 10466 10451 10441 10425 10415 10397 10384 10373 10364 10356 10348 10340 10331 10320 10310 10301
10523 10530 10535 10539 10544 10547 10552 10556 10556 10555 10558 10561 10562 10563 10563 10563 10562 10559 10556 10552 10548 10541 10535 10530 10521 10512 10501 10488 10473 10454 10440 10432 10420 10405 10390 10379 10371 10360 10353 10343 10331 10320 10308 10296 10287
10507 10515 10520 10525 10529 10535 10541 10543 10543 10543 10546 10550 10551 10553 10553 10553 10552 10551 10547 10543 10538 10532 10526 10520 10512 10502 10491 10480 10464 10445 10432 10423 10411 10401 10389 10373 10367 10356 10348 10340 10324 10310 10297 10285 10273
10490 10498 10505 10509 10515 10521 10531 10529 10529 10531 10535 10538 10539 10542 10541 10542 10542 10540 10537 10534 10529 10524 10517 10511 10503 10493 10482 10469 10455 10440 10426 10414 10401 10389 10381 10372 10361 10352 10341 10330 10318 10301 10287 10274 10263
10475 10480 10488 10493 10499 10508 10513 10515 10517 10520 10523 10527 10528 10529 10530 10531 10533 10530 10528 10523 10520 10516 10509 10502 10495 10484 10475 10460 10443 10430 10422 10409 10397 10387 10378 10365 10356 10348 10336 10320 10304 10289 10277 10264 10254
10452 10462 10469 10476 10483 10491 10497 10501 10505 10509 10512 10516 10517 10518 10519 10520 10523 10519 10517 10514 10510 10507 10501 10494 10487 10478 10471 10457 10441 10426 10416 10404 10393 10381 10372 10362 10353 10340 10328 10314 10297 10285 10271 10258 10248
10431 10443 10454 10461 10469 10476 10482 10487 10493 10497 10499 10503 10505 10507 10507 10508 10510 10511 10507 10503 10501 10498 10493 10486 10477 10468 10461 10449 10435 10422 10414 10401 10388 10379 10372 10365 10356 10346 10331 10317 10302 10286 10271 10258 10247
10410 10427 10441 10447 10455 10460 10464 10475 10478 10482 10483 10489 10493 10493 10495 10497 10499 10498 10497 10494 10491 10489 10484 10478 10470 10460 10452 10440 10427 10414 10406 10396 10385 10376 10369 10362 10354 10343 10332 10322 10303 10286 10271 10260 10249
10396 10414 10421 10432 10435 10440 10449 10462 10463 10465 10469 10474 10478 10479 10484 10484 10488 10486 10486 10484 10482 10479 10476 10470 10465 10456 10441 10431 10419 10408 10401 10392 10380 10373 10368 10361 10353 10343 10332 10316 10302 10291 10279 10265 10254
10378 10394 10400 10410 10418 10424 10440 10439 10444 10448 10454 10458 10460 10468 10471 10474 10477 10477 10476 10474 10474 10470 10466 10461 10457 10451 10439 10428 10415 10405 10394 10386 10376 10369 10366 10360 10354 10345 10334 10324 10313 10299 10286 10273 10264